Find OneWeb SL0650

NORAD ID: 55813 Int'l Des: 2023-029 Owner: ONEWEBN Country: UK Constellation: oneweb operational
LEOCIRCULARPOLARONEWEB_TYPE

当前视图

正在加载3D地球...

About OneWeb SL0650

OneWeb SL0650 (NORAD 55813) is a oneweb constellation satellite launched Mar 9, 2023 by ONEWEBN of UK. It operates in LEO, CIRCULAR, POLAR, ONEWEB_TYPE orbit with a mass of 148.00 kg.

关于 OneWeb SL0650

正在加载描述...

即将过境

Passes for default location (London). Set your location on the main map for personalized predictions.

高度历史

Loading altitude history...

两行轨道根数

1 55813U 23029T 26170.12475677 -.00003164 00000-0 -79359-2 0 9994
2 55813 87.9164 304.5904 0001620 124.2166 235.9120 13.19741308159155
Epoch: Jun 19, 2026 • Age: 6 hours

当前状态

高度 1192.0 km
速度 7.26 km/s
星下点 -17.02°S, 75.84°E
发射日期 Mar 9, 2023
运行时间 3.2 years
类型 internet

技术详情

分类 Payload
质量 148.00 kg
干质量 140.00 kg
总质量 148.00 kg
长度 1.30 m
直径 1.00 m
跨度 5.00 m
形状 Trapezoid+2 pan
制造商 ONEWUS
平台类型 ARROW
阶段状态 In Orbit
所有者/国家 ONEWEBN/UK

Most Searched